EW4711 Weather Reports


Display with metric or nautical units.
time (UTC)temp
F
wind
direction
speed
MPH
gust
MPH
rain 1hr
in
rain 24hr
in
rain mn
in
humidity
%
barometer
mb
20260904222104 74 333 1.0 6.0 0.00 0.00 0.00 72 1011.9
20260904221603 74 35 1.0 3.0 0.00 0.00 0.00 70 1011.8
20260904221103 74 337 1.0 3.0 0.00 0.00 0.00 69 1011.8
20260904215605 74 357 1.0 3.0 0.00 0.00 0.00 71 1011.5
20260904215103 73 1 3.0 7.0 0.00 0.00 0.00 70 1011.5
20260904214603 73 316 3.0 6.0 0.00 0.00 0.00 71 1011.5
20260904214103 73 344 2.0 5.0 0.00 0.00 0.00 71 1011.6
20260904213603 73 343 2.0 5.0 0.00 0.00 0.00 71 1011.6
20260904213103 74 317 1.0 3.0 0.00 0.00 0.00 72 1011.6
20260904212604 73 336 1.0 3.0 0.00 0.00 0.00 71 1011.6
20260904212103 73 352 2.0 3.0 0.00 0.00 0.00 73 1011.6
20260904211604 73 325 1.0 6.0 0.00 0.00 0.00 71 1011.8
20260904211103 73 328 2.0 3.0 0.00 0.00 0.00 71 1011.8
20260904210603 73 326 2.0 3.0 0.00 0.00 0.00 69 1011.9
20260904205604 73 330 2.0 6.0 0.00 0.00 0.00 68 1012.0
20260904205103 74 330 3.0 6.0 0.00 0.00 0.00 70 1012.1
20260904204104 74 320 1.0 3.0 0.00 0.00 0.00 69 1012.1
20260904203604 74 341 3.0 7.0 0.00 0.00 0.00 67 1012.2
20260904203103 74 348 2.0 3.0 0.00 0.00 0.00 70 1012.0
20260904202604 75 314 0.0 3.0 0.00 0.00 0.00 69 1012.1
20260904202104 75 338 2.0 7.0 0.00 0.00 0.00 69 1012.3
20260904200604 75 335 2.0 3.0 0.00 0.00 0.00 70 1012.3
20260904200103 75 339 2.0 8.0 0.00 0.00 0.00 70 1012.4
20260904195603 75 0 3.0 7.0 0.00 0.00 0.00 71 1012.4
20260904195103 75 322 2.0 9.0 0.00 0.00 0.00 69 1012.5
20260904194603 76 315 6.0 12.0 0.00 0.00 0.00 69 1012.5
20260904194103 76 51 2.0 7.0 0.00 0.00 0.00 72 1012.5
20260904193604 76 270 1.0 3.0 0.00 0.00 0.00 73 1012.7
20260904193104 76 350 2.0 7.0 0.00 0.00 0.00 75 1012.8
20260904192603 75 14 2.0 6.0 0.00 0.00 0.00 73 1012.9
20260904192104 75 12 2.0 7.0 0.00 0.00 0.00 73 1013.0
20260904191603 75 37 3.0 9.0 0.00 0.00 0.00 72 1013.0
20260904191103 75 8 2.0 7.0 0.00 0.00 0.00 72 1013.2
20260904190603 75 2 2.0 6.0 0.00 0.00 0.00 72 1013.3
20260904190104 75 354 2.0 6.0 0.00 0.00 0.00 72 1013.3
20260904185604 75 352 2.0 6.0 0.00 0.00 0.00 71 1013.3
20260904185104 75 8 2.0 6.0 0.00 0.00 0.00 70 1013.3
20260904184603 75 357 2.0 6.0 0.00 0.00 0.00 70 1013.4
20260904183603 75 24 3.0 6.0 0.00 0.00 0.00 68 1013.5
20260904183103 75 0 2.0 7.0 0.00 0.00 0.00 69 1013.4
20260904182604 75 346 5.0 9.0 0.00 0.00 0.00 70 1013.5
20260904182103 75 343 3.0 10.0 0.00 0.00 0.00 70 1013.5
20260904181603 75 357 2.0 7.0 0.00 0.00 0.00 69 1013.5
20260904180604 76 17 5.0 8.0 0.00 0.00 0.00 70 1013.4
20260904180104 76 0 4.0 9.0 0.00 0.00 0.00 69 1013.5
20260904175604 76 5 2.0 6.0 0.00 0.00 0.00 66 1013.4
20260904174603 77 317 1.0 7.0 0.00 0.00 0.00 70 1013.5
20260904173603 77 335 2.0 8.0 0.00 0.00 0.00 71 1013.7
20260904173103 78 333 4.0 10.0 0.00 0.00 0.00 71 1013.7
20260904172604 77 324 2.0 10.0 0.00 0.00 0.00 70 1013.7
20260904172104 77 330 4.0 8.0 0.00 0.00 0.00 66 1013.9
20260904171104 77 332 5.0 9.0 0.00 0.00 0.00 69 1013.9
20260904170604 77 272 2.0 7.0 0.00 0.00 0.00 71 1013.7
20260904165604 77 338 3.0 9.0 0.00 0.00 0.00 72 1013.9
20260904165103 77 346 5.0 8.0 0.00 0.00 0.00 69 1014.0
20260904164104 77 358 3.0 8.0 0.00 0.00 0.00 70 1014.2
20260904163103 77 312 5.0 12.0 0.00 0.00 0.00 72 1014.3
20260904162104 77 330 2.0 7.0 0.00 0.00 0.00 75 1014.4
20260904161603 77 18 5.0 12.0 0.00 0.00 0.00 75 1014.4
20260904161105 76 294 1.0 7.0 0.00 0.00 0.00 76 1014.4
20260904160604 75 312 2.0 6.0 0.00 0.00 0.00 75 1014.4
20260904155603 76 345 1.0 9.0 0.00 0.00 0.00 77 1014.3
20260904155104 76 246 0.0 3.0 0.00 0.00 0.00 79 1014.1
20260904154604 75 301 2.0 6.0 0.00 0.00 0.00 76 1014.1
20260904154104 76 8 2.0 6.0 0.00 0.00 0.00 75 1014.0
20260904153604 76 341 3.0 7.0 0.00 0.00 0.00 76 1013.8
20260904153104 76 178 1.0 3.0 0.00 0.00 0.00 76 1013.7
20260904152605 75 214 1.0 3.0 0.00 0.00 0.00 80 1013.9
20260904151103 75 357 1.0 5.0 0.00 0.00 0.00 81 1014.0
20260904150604 75 81 2.0 3.0 0.00 0.00 0.00 79 1014.1
20260904150104 75 315 1.0 3.0 0.00 0.00 0.00 80 1014.1
20260904145603 74 261 2.0 5.0 0.00 0.00 0.00 80 1014.0
20260904145104 75 26 2.0 6.0 0.00 0.00 0.00 79 1014.0
20260904144604 74 296 2.0 3.0 0.00 0.00 0.00 80 1014.0
20260904144103 75 324 1.0 6.0 0.00 0.00 0.00 81 1013.9
20260904143603 75 12 1.0 3.0 0.00 0.00 0.00 79 1013.8
20260904142603 74 114 2.0 6.0 0.00 0.00 0.00 80 1013.8
20260904142104 74 322 2.0 7.0 0.00 0.00 0.00 83 1013.8
20260904141603 74 327 3.0 6.0 0.00 0.00 0.00 84 1013.8
20260904141104 73 350 1.0 3.0 0.00 0.00 0.00 82 1013.8
20260904140604 73 354 1.0 6.0 0.00 0.00 0.00 84 1013.9
20260904140104 73 312 3.0 6.0 0.00 0.00 0.00 83 1013.9
20260904135103 72 326 2.0 3.0 0.00 0.00 0.00 86 1013.9
20260904134603 71 297 0.0 1.0 0.00 0.00 0.00 86 1014.0
20260904134103 71 297 0.0 2.0 0.00 0.00 0.00 86 1014.0
20260904133603 71 297 1.0 3.0 0.00 0.00 0.00 88 1014.1
20260904132604 70 37 0.0 1.0 0.00 0.00 0.00 90 1014.1
20260904131603 69 353 1.0 3.0 0.00 0.00 0.00 92 1014.1
20260904131104 69 315 3.0 6.0 0.00 0.00 0.00 94 1014.1
20260904130603 68 346 0.0 3.0 0.00 0.00 0.00 94 1014.1
20260904125603 67 2 1.0 3.0 0.00 0.00 0.00 96 1014.3
20260904125104 67 354 2.0 3.0 0.00 0.00 0.00 96 1014.1
20260904124604 66 326 0.0 2.0 0.00 0.00 0.00 96 1014.1
20260904124103 66 338 2.0 3.0 0.00 0.00 0.00 97 1014.2
20260904123604 66 357 2.0 3.0 0.00 0.00 0.00 97 1014.3
20260904123103 66 328 1.0 3.0 0.00 0.00 0.00 97 1014.4
20260904122603 66 10 2.0 3.0 0.00 0.00 0.00 97 1014.3
20260904122104 65 342 2.0 3.0 0.00 0.00 0.00 97 1014.1
20260904121604 65 342 0.0 1.0 0.00 0.00 0.00 97 1014.1
20260904121104 64 342 0.0 0.0 0.00 0.00 0.00 97 1014.0
20260904120604 64 342 0.0 1.0 0.00 0.00 0.00 97 1014.0
20260904120104 64 342 0.0 0.0 0.00 0.00 0.00 97 1014.0
20260904115603 63 342 0.0 1.0 0.00 0.00 0.00 96 1013.9
20260904115103 62 342 0.0 0.0 0.00 0.00 0.00 96 1014.0
20260904114603 62 342 1.0 2.0 0.00 0.00 0.00 96 1013.9
20260904113603 62 342 0.0 0.0 0.00 0.00 0.00 95 1013.7
20260904113103 61 342 0.0 0.0 0.00 0.00 0.00 95 1013.6
20260904112604 61 342 0.0 0.0 0.00 0.00 0.00 95 1013.5
20260904111603 61 342 0.0 0.0 0.00 0.00 0.00 95 1013.6
20260904111104 61 342 0.0 0.0 0.00 0.00 0.00 94 1013.5
20260904110603 62 342 0.0 0.0 0.00 0.00 0.00 94 1013.4
20260904105603 62 342 0.0 0.0 0.00 0.00 0.00 94 1013.4
20260904105103 62 342 0.0 2.0 0.00 0.00 0.00 93 1013.3
20260904104604 62 3 0.0 0.0 0.00 0.00 0.00 93 1013.3
20260904104103 62 3 0.0 0.0 0.00 0.00 0.00 93 1013.3
20260904103104 63 3 0.0 0.0 0.00 0.00 0.00 92 1013.3
20260904102603 63 3 0.0 0.0 0.00 0.00 0.00 92 1013.3
20260904102103 63 3 0.0 0.0 0.00 0.00 0.00 92 1013.3
20260904101604 63 3 0.0 0.0 0.00 0.00 0.00 92 1013.3
20260904101104 63 3 0.0 0.0 0.00 0.00 0.00 92 1013.3
20260904100604 64 3 0.0 0.0 0.00 0.00 0.00 92 1013.3
20260904100104 64 3 0.0 1.0 0.00 0.00 0.00 92 1013.3
20260904095603 64 2 0.0 1.0 0.00 0.00 0.00 92 1013.3
20260904094603 64 359 0.0 1.0 0.00 0.00 0.00 92 1013.2
20260904094103 65 359 0.0 2.0 0.00 0.00 0.00 92 1013.1
20260904093604 65 343 0.0 1.0 0.00 0.00 0.00 92 1013.0
20260904093104 65 343 0.0 2.0 0.00 0.00 0.00 92 1013.0
20260904092603 65 3 0.0 2.0 0.00 0.00 0.00 92 1013.1
20260904092104 65 3 0.0 1.0 0.00 0.00 0.00 92 1013.2
20260904091604 65 1 1.0 3.0 0.00 0.00 0.00 92 1013.1
20260904091104 65 354 1.0 3.0 0.00 0.00 0.00 93 1013.0
20260904090604 66 16 1.0 3.0 0.00 0.00 0.00 93 1013.0
20260904090103 66 347 1.0 6.0 0.00 0.00 0.00 94 1013.0
20260904085603 66 17 1.0 3.0 0.00 0.00 0.00 94 1013.0
20260904084604 66 6 0.0 3.0 0.00 0.00 0.00 95 1013.0
20260904084104 66 340 1.0 3.0 0.00 0.00 0.00 95 1013.1
20260904083603 66 348 2.0 3.0 0.00 0.00 0.00 96 1013.1
20260904082604 66 353 2.0 3.0 0.00 0.00 0.00 96 1013.0
20260904082103 66 354 2.0 5.0 0.00 0.00 0.00 96 1013.0
20260904081604 66 346 2.0 3.0 0.00 0.00 0.00 97 1012.9
20260904081103 66 352 1.0 6.0 0.00 0.00 0.00 97 1012.9
20260904080604 65 330 1.0 2.0 0.00 0.00 0.00 97 1012.8
20260904075604 65 316 2.0 5.0 0.00 0.00 0.00 97 1012.8
20260904074604 64 348 2.0 3.0 0.00 0.00 0.00 96 1012.8
20260904074104 64 15 1.0 2.0 0.00 0.00 0.00 96 1012.6
20260904073604 64 6 1.0 2.0 0.00 0.00 0.00 95 1012.5
20260904073103 64 6 0.0 1.0 0.00 0.00 0.00 95 1012.5
20260904072103 64 6 0.0 0.0 0.00 0.00 0.00 95 1012.6
20260904071604 64 6 0.0 1.0 0.00 0.00 0.00 95 1012.5
20260904071103 64 6 0.0 1.0 0.00 0.00 0.00 95 1012.5
20260904070604 64 6 0.0 2.0 0.00 0.00 0.00 95 1012.5
20260904070105 64 6 0.0 1.0 0.00 0.00 0.00 95 1012.5
20260904065103 65 6 1.0 2.0 0.00 0.00 0.00 95 1012.4
20260904064603 65 6 1.0 3.0 0.00 0.00 0.00 95 1012.4
20260904064104 65 6 0.0 2.0 0.00 0.00 0.00 95 1012.4
20260904063604 65 0 1.0 3.0 0.00 0.00 0.00 95 1012.4
20260904063103 65 357 1.0 2.0 0.00 0.00 0.00 95 1012.5
20260904062604 65 357 0.0 1.0 0.00 0.00 0.00 95 1012.4
20260904061604 65 7 0.0 0.0 0.00 0.00 0.00 95 1012.3
20260904061104 65 7 0.0 0.0 0.00 0.00 0.00 95 1012.4
20260904060104 65 5 0.0 0.0 0.00 0.00 0.00 95 1012.5
20260904055604 65 5 0.0 0.0 0.00 0.00 0.00 95 1012.6
20260904055104 65 5 0.0 0.0 0.00 0.00 0.00 95 1012.6
20260904054604 65 5 0.0 0.0 0.00 0.00 0.00 95 1012.6
20260904054103 66 5 0.0 0.0 0.00 0.00 0.00 95 1012.6
20260904053604 66 24 0.0 0.0 0.00 0.00 0.00 95 1012.7
20260904053104 66 137 0.0 0.0 0.00 0.00 0.00 95 1012.7
20260904052603 66 137 0.0 0.0 0.00 0.00 0.00 95 1012.8
20260904052104 66 137 0.0 0.0 0.00 0.00 0.00 95 1012.9
20260904051603 66 137 0.0 0.0 0.00 0.00 0.00 95 1012.9
20260904051104 66 137 0.0 0.0 0.00 0.00 0.00 95 1012.9
20260904050103 66 137 0.0 0.0 0.00 0.00 0.00 95 1012.9
20260904045604 66 137 0.0 0.0 0.00 0.00 0.00 95 1012.9
20260904045104 66 137 0.0 0.0 0.00 0.00 0.00 95 1013.0
20260904044603 66 137 0.0 0.0 0.00 0.00 0.00 95 1012.9
20260904044104 66 137 0.0 0.0 0.00 0.00 0.00 95 1012.9
20260904043603 66 137 0.0 0.0 0.00 0.00 0.00 95 1013.0
20260904043103 66 137 0.0 0.0 0.00 0.00 0.00 95 1013.0
20260904042104 66 137 0.0 0.0 0.00 0.00 0.00 95 1013.0
20260904041104 66 137 0.0 0.0 0.00 0.00 0.00 94 1013.0
20260904040603 66 137 0.0 0.0 0.00 0.00 0.00 94 1013.0
20260904040104 66 137 0.0 0.0 0.00 0.00 0.00 94 1012.9
20260904035604 66 137 0.0 0.0 0.00 0.00 0.00 93 1012.7
20260904035103 66 137 0.0 0.0 0.00 0.00 0.00 93 1012.6
20260904034603 66 137 0.0 0.0 0.00 0.00 0.00 93 1012.7
20260904034104 66 137 0.0 0.0 0.00 0.00 0.00 93 1012.5
20260904033604 66 137 0.0 0.0 0.00 0.00 0.00 93 1012.5
20260904033104 66 137 0.0 0.0 0.00 0.00 0.00 93 1012.5
20260904032103 66 137 0.0 0.0 0.00 0.00 0.00 92 1012.4
20260904031104 67 137 0.0 0.0 0.00 0.00 0.00 91 1012.3
20260904030603 67 137 0.0 0.0 0.00 0.00 0.00 91 1012.2
20260904030103 67 137 0.0 0.0 0.00 0.00 0.00 91 1012.2
20260904025604 68 137 0.0 0.0 0.00 0.00 0.00 91 1012.2
20260904025103 68 137 0.0 0.0 0.00 0.00 0.00 90 1012.2
20260904024604 68 137 0.0 0.0 0.00 0.00 0.00 90 1012.1
20260904024104 68 137 0.0 0.0 0.00 0.00 0.00 90 1012.2
20260904023604 69 137 0.0 0.0 0.00 0.00 0.00 90 1012.2
20260904023103 69 137 0.0 0.0 0.00 0.00 0.00 90 1012.2
20260904022104 69 137 0.0 0.0 0.00 0.00 0.00 89 1012.3
20260904021604 69 137 0.0 0.0 0.00 0.00 0.00 89 1012.4
20260904020604 70 137 0.0 0.0 0.00 0.00 0.00 89 1012.4
20260904015603 70 137 0.0 0.0 0.00 0.00 0.00 88 1012.6
20260904015104 70 137 0.0 0.0 0.00 0.00 0.00 87 1012.4
20260904014604 70 137 0.0 0.0 0.00 0.00 0.00 86 1012.3
20260904014104 70 137 0.0 0.0 0.00 0.00 0.00 85 1012.2
20260904013603 71 137 0.0 0.0 0.00 0.01 0.00 85 1012.2
20260904013104 71 137 0.0 3.0 0.00 0.01 0.00 85 1012.1
20260904012604 71 150 0.0 2.0 0.00 0.04 0.00 85 1012.0
20260904012104 71 143 1.0 3.0 0.00 0.15 0.00 85 1011.9
20260904011104 72 56 1.0 3.0 0.00 0.16 0.00 86 1011.8
20260904010104 72 126 1.0 2.0 0.00 0.16 0.00 85 1011.8
20260904005604 72 126 1.0 2.0 0.00 0.16 0.00 85 1011.7
20260904005104 73 127 1.0 3.0 0.00 0.16 0.00 85 1011.6
20260904004604 73 105 0.0 3.0 0.00 0.16 0.00 85 1011.7
20260904003604 73 34 1.0 5.0 0.00 0.17 0.00 86 1011.7
20260904003104 73 72 1.0 3.0 0.00 0.17 0.00 86 1011.3
20260904002604 73 52 2.0 5.0 0.00 0.17 0.00 87 1011.3
20260904002103 74 46 2.0 3.0 0.00 0.17 0.00 87 1011.3
20260904001603 74 43 2.0 3.0 0.00 0.17 0.00 88 1011.5
20260904000604 75 62 2.0 5.0 0.00 0.19 0.00 90 1011.4
20260904000103 76 70 3.0 9.0 0.00 0.20 0.00 92 1011.4
20260903235604 76 327 2.0 3.0 0.00 0.22 0.00 92 1011.3
20260903235104 76 272 1.0 3.0 0.00 0.23 0.00 92 1011.2
20260903234604 76 260 1.0 3.0 0.00 0.24 0.00 92 1011.1
20260903234103 76 269 1.0 3.0 0.00 0.25 0.00 91 1011.2
20260903233603 77 263 1.0 3.0 0.00 0.26 0.00 91 1011.1
20260903233104 77 197 1.0 3.0 0.00 0.28 0.00 91 1011.1
20260903232604 77 250 1.0 3.0 0.00 0.30 0.00 90 1011.0
20260903232105 77 232 1.0 3.0 0.00 0.31 0.00 90 1011.0
20260903231604 77 239 1.0 3.0 0.00 0.33 0.00 90 1011.0
20260903231103 77 223 0.0 2.0 0.00 0.36 0.00 90 1011.1
20260903230603 78 202 1.0 3.0 0.00 0.45 0.00 89 1011.0
20260903225602 78 255 0.0 3.0 0.00 0.48 0.00 89 1011.0
20260903225103 78 269 1.0 3.0 0.00 0.48 0.00 88 1011.0
20260903224602 78 227 0.0 2.0 0.00 0.49 0.00 88 1010.9
20260903224102 79 245 0.0 2.0 0.00 0.49 0.00 87 1011.0
20260903223102 79 241 1.0 3.0 0.00 0.49 0.00 86 1011.0
20260903222603 80 291 0.0 1.0 0.00 0.49 0.00 86 1011.2